TimeCDT,TemperatureF,Dew PointF,Humidity,Sea Level PressureIn,VisibilityMPH,Wind Direction,Wind SpeedMPH,Gust SpeedMPH,PrecipitationIn,Events,Conditions,WindDirDegrees,DateUTC
12:15 AM,50.0,34.7,56,30.12,10.0,SSE,12.7,-,N/A,,Clear,160,2013-04-26 05:15:00
12:35 AM,49.3,35.1,58,30.11,10.0,SSE,12.7,-,N/A,,Clear,160,2013-04-26 05:35:00
12:55 AM,49.5,35.6,59,30.11,10.0,SSE,12.7,-,N/A,,Clear,160,2013-04-26 05:55:00
1:15 AM,49.1,35.8,60,30.11,10.0,SSE,11.5,-,N/A,,Clear,160,2013-04-26 06:15:00
1:35 AM,48.4,36.1,63,30.11,10.0,SSE,11.5,-,N/A,,Clear,160,2013-04-26 06:35:00
1:55 AM,47.7,36.5,65,30.11,10.0,SSE,10.4,-,N/A,,Clear,160,2013-04-26 06:55:00
2:15 AM,46.9,36.9,68,30.11,10.0,South,11.5,-,N/A,,Clear,170,2013-04-26 07:15:00
2:35 AM,46.8,37.0,69,30.10,10.0,South,12.7,-,N/A,,Clear,170,2013-04-26 07:35:00
2:55 AM,47.1,37.4,69,30.10,10.0,South,12.7,-,N/A,,Clear,170,2013-04-26 07:55:00
3:15 AM,46.6,37.6,71,30.09,10.0,South,11.5,-,N/A,,Clear,170,2013-04-26 08:15:00
3:35 AM,46.9,37.8,70,30.09,10.0,South,10.4,-,N/A,,Clear,170,2013-04-26 08:35:00
3:55 AM,47.3,38.1,70,30.09,10.0,South,12.7,-,N/A,,Clear,170,2013-04-26 08:55:00
4:15 AM,47.5,38.3,70,30.08,10.0,South,11.5,-,N/A,,Clear,170,2013-04-26 09:15:00
4:35 AM,47.3,37.8,69,30.08,10.0,South,10.4,-,N/A,,Clear,170,2013-04-26 09:35:00
4:55 AM,47.3,37.4,68,30.07,10.0,South,11.5,-,N/A,,Clear,170,2013-04-26 09:55:00
5:15 AM,47.7,37.4,68,30.07,10.0,South,9.2,-,N/A,,Clear,170,2013-04-26 10:15:00
5:35 AM,48.4,37.6,66,30.07,10.0,South,11.5,-,N/A,,Clear,170,2013-04-26 10:35:00
5:55 AM,49.3,37.8,65,30.06,10.0,South,12.7,-,N/A,,Clear,170,2013-04-26 10:55:00
6:15 AM,48.7,37.9,66,30.06,10.0,South,12.7,-,N/A,,Clear,180,2013-04-26 11:15:00
6:55 AM,49.5,38.3,65,30.07,10.0,South,13.8,-,N/A,,Clear,180,2013-04-26 11:55:00
7:15 AM,50.4,38.3,63,30.09,10.0,South,13.8,-,N/A,,Clear,180,2013-04-26 12:15:00
7:35 AM,51.3,38.3,61,30.09,10.0,South,13.8,-,N/A,,Clear,190,2013-04-26 12:35:00
7:55 AM,53.4,38.7,57,30.09,10.0,South,16.1,-,N/A,,Clear,180,2013-04-26 12:55:00
8:15 AM,55.4,38.3,53,30.09,10.0,South,19.6,25.3,N/A,,Clear,190,2013-04-26 13:15:00
8:35 AM,56.5,38.1,50,30.08,10.0,SSW,23.0,27.6,N/A,,Clear,200,2013-04-26 13:35:00
8:55 AM,57.2,38.5,50,30.09,10.0,SSW,20.7,25.3,N/A,,Clear,200,2013-04-26 13:55:00
9:15 AM,59.4,38.8,47,30.09,10.0,South,21.9,27.6,N/A,,Clear,190,2013-04-26 14:15:00
9:35 AM,61.3,39.2,44,30.09,10.0,SSW,25.3,29.9,N/A,,Clear,200,2013-04-26 14:35:00
9:55 AM,62.1,39.6,44,30.09,10.0,SSW,27.6,34.5,N/A,,Clear,200,2013-04-26 14:55:00
10:15 AM,61.9,39.9,44,30.09,10.0,SSW,28.8,-,N/A,,Clear,200,2013-04-26 15:15:00
10:35 AM,63.7,40.3,42,30.10,10.0,SSW,24.2,32.2,N/A,,Clear,210,2013-04-26 15:35:00
10:55 AM,64.0,41.2,43,30.10,10.0,SSW,26.5,31.1,N/A,,Clear,200,2013-04-26 15:55:00
11:15 AM,64.8,41.2,42,30.11,10.0,SSW,26.5,32.2,N/A,,Clear,210,2013-04-26 16:15:00
11:35 AM,66.0,41.9,41,30.11,10.0,SSW,21.9,29.9,N/A,,Clear,200,2013-04-26 16:35:00
11:55 AM,65.8,41.9,42,30.12,10.0,SSW,27.6,32.2,N/A,,Clear,210,2013-04-26 16:55:00
12:15 PM,65.8,42.4,43,30.12,10.0,South,27.6,33.4,N/A,,Clear,190,2013-04-26 17:15:00
12:35 PM,66.2,42.3,42,30.12,10.0,SSW,25.3,32.2,N/A,,Scattered Clouds,200,2013-04-26 17:35:00
12:55 PM,66.9,42.6,41,30.12,10.0,South,25.3,29.9,N/A,,Scattered Clouds,190,2013-04-26 17:55:00
1:15 PM,66.4,43.0,43,30.12,10.0,SSW,21.9,32.2,N/A,,Scattered Clouds,200,2013-04-26 18:15:00
1:35 PM,65.8,42.4,43,30.11,10.0,SSW,18.4,27.6,N/A,,Clear,200,2013-04-26 18:35:00
1:55 PM,66.0,42.4,42,30.11,10.0,SSW,21.9,25.3,N/A,,Clear,210,2013-04-26 18:55:00
2:15 PM,66.9,42.6,41,30.12,10.0,SW,19.6,24.2,N/A,,Scattered Clouds,220,2013-04-26 19:15:00
2:35 PM,67.5,42.6,41,30.12,10.0,SW,18.4,25.3,N/A,,Scattered Clouds,220,2013-04-26 19:35:00
2:55 PM,67.5,41.9,39,30.13,10.0,WSW,16.1,23.0,N/A,,Mostly Cloudy,240,2013-04-26 19:55:00
3:15 PM,66.7,42.6,42,30.12,10.0,SSW,15.0,20.7,N/A,,Mostly Cloudy,210,2013-04-26 20:15:00
3:35 PM,68.4,42.8,40,30.11,10.0,SSW,17.3,23.0,N/A,,Mostly Cloudy,210,2013-04-26 20:35:00
3:55 PM,67.5,43.0,41,30.11,10.0,SSW,16.1,19.6,N/A,,Mostly Cloudy,200,2013-04-26 20:55:00
4:15 PM,68.4,42.3,39,30.12,10.0,SW,10.4,-,N/A,,Mostly Cloudy,230,2013-04-26 21:15:00
4:35 PM,67.6,42.6,40,30.11,10.0,SSW,11.5,-,N/A,,Mostly Cloudy,200,2013-04-26 21:35:00
4:55 PM,68.2,43.2,40,30.11,10.0,SW,13.8,19.6,N/A,,Mostly Cloudy,220,2013-04-26 21:55:00
5:15 PM,68.0,43.0,40,30.12,10.0,SW,11.5,17.3,N/A,,Mostly Cloudy,230,2013-04-26 22:15:00
5:35 PM,66.6,46.0,48,30.11,10.0,SSW,20.7,24.2,N/A,,Mostly Cloudy,200,2013-04-26 22:35:00
5:55 PM,66.6,45.7,47,30.11,10.0,South,19.6,-,N/A,,Scattered Clouds,190,2013-04-26 22:55:00
6:15 PM,66.2,45.5,47,30.11,10.0,SSW,21.9,-,N/A,,Clear,200,2013-04-26 23:15:00
6:35 PM,65.3,45.9,49,30.12,10.0,South,21.9,25.3,N/A,,Clear,190,2013-04-26 23:35:00
6:55 PM,63.9,45.5,51,30.13,10.0,SSW,19.6,25.3,N/A,,Clear,200,2013-04-26 23:55:00
7:15 PM,63.0,45.7,53,30.13,10.0,South,18.4,-,N/A,,Clear,180,2013-04-27 00:15:00
7:35 PM,61.2,45.5,56,30.13,10.0,South,17.3,-,N/A,,Clear,190,2013-04-27 00:35:00
7:55 PM,59.9,45.1,58,30.14,10.0,South,13.8,-,N/A,,Clear,190,2013-04-27 00:55:00
8:15 PM,58.5,45.1,61,30.14,10.0,South,13.8,-,N/A,,Clear,190,2013-04-27 01:15:00
8:35 PM,57.2,45.5,65,30.15,10.0,South,11.5,-,N/A,,Clear,190,2013-04-27 01:35:00
8:55 PM,55.8,45.1,67,30.16,10.0,South,10.4,-,N/A,,Clear,180,2013-04-27 01:55:00
9:15 PM,54.7,45.0,70,30.17,10.0,South,9.2,-,N/A,,Clear,180,2013-04-27 02:15:00
9:35 PM,53.8,44.8,72,30.18,10.0,South,10.4,-,N/A,,Clear,180,2013-04-27 02:35:00
9:55 PM,52.9,44.6,73,30.18,10.0,South,9.2,-,N/A,,Clear,190,2013-04-27 02:55:00
10:15 PM,51.8,44.1,75,30.18,10.0,South,8.1,-,N/A,,Clear,180,2013-04-27 03:15:00
10:35 PM,50.9,43.7,76,30.19,10.0,South,6.9,-,N/A,,Clear,180,2013-04-27 03:35:00
10:55 PM,49.6,43.5,79,30.19,10.0,South,8.1,-,N/A,,Clear,190,2013-04-27 03:55:00
11:15 PM,48.6,42.8,80,30.19,10.0,South,8.1,-,N/A,,Clear,180,2013-04-27 04:15:00
11:35 PM,48.2,42.8,82,30.20,10.0,South,5.8,-,N/A,,Clear,190,2013-04-27 04:35:00
11:55 PM,47.5,42.8,84,30.20,10.0,SSW,5.8,-,N/A,,Clear,210,2013-04-27 04:55:00